Tracking 29892 objects as of 21-Nov-2024
HD Live streaming from Space Station
objects crossing your sky now

COSMOS 2251 DEB

Track COSMOS 2251 DEB now!
10-day predictions


NORAD ID: 33839
Int'l Code: 1993-036CG
Perigee: 631.1 km
Apogee: 752.3 km
Inclination: 74.0 °
Period: 98.5 minutes
Semi major axis: 7062 km
RCS: 0.0289 m2 (small)
Launch date: June 16, 1993
Source: Commonwealth of Independent States (former USSR) (CIS)
Launch site: PLESETSK MISSILE AND SPACE COMPLEX (PKMTR)

Note: This is SATELLITE DEBRIS
Your satellite tracking list
Your tracking list is empty




NASA's NSSDC Master Catalog

Two Line Element Set (TLE):
1 33839U 93036CG  24326.17632226  .00002639  00000-0  49769-3 0  9991
2 33839  74.0407 228.3083 0085758  79.9778  68.5088 14.62666219839385
Source of the keplerian elements: AFSPC